Weather History for St. Joseph, MO

Change the Weather History Date:

Monday, June 24, 2013

  Actual Average Record
Temperature  
Mean Temperature 79 °F 75 °F  
Max Temperature 89 °F 86 °F 103 °F (1937)
Min Temperature 69 °F 65 °F 49 °F (1974)
Degree Days  
Heating Degree Days 0 0  
Month to date heating degree days 15 6  
Since 1 June heating degree days 15 6  
Since 1 July heating degree days 5614 5456  
Cooling Degree Days 14 10  
Month to date cooling degree days 209 201  
Year to date cooling degree days 335 314  
Since 1 June cooling degree days 209 201  
Growing Degree Days 29 (Base 50)    
Moisture  
Dew Point 67 °F    
Average Humidity 64    
Maximum Humidity 79    
Minimum Humidity 48    
Precipitation  
Precipitation T in 0.13 in 4.70 in (1955)
Month to date precipitation 1.34 3.58  
Year to date precipitation 15.39 16.53  
Sea Level Pressure  
Sea Level Pressure 29.86 in    
Wind  
Wind Speed 13 mph (South)    
Max Wind Speed 30 mph    
Max Gust Speed 38 mph    
Visibility 10 miles    
Events Rain , Thunderstorm    
T = Trace of Precipitation, MM = Missing Value Source: NWS Daily Summary

Daily Weather History Graph

Daily Weather History Graph

Search for Another Location

Airport:

Trip Planner

Search our weather history database for the weather conditions in past years. The results will help you decide how hot, cold, wet, or windy it might be!

Date:

Astronomy

Jun. 24, 2013 Rise Set
Actual Time 5:52 AM CDT 8:51 PM CDT
Civil Twilight 5:19 AM CDT 9:24 PM CDT
Nautical Twilight 4:38 AM CDT 10:05 PM CDT
Astronomical Twilight 3:50 AM CDT 10:53 PM CDT
Moon 9:55 PM CDT (6/24) 7:21 AM CDT (6/24)
Length of Visible Light 16h 04m
Length of Day
14h 59m
Full, 98% of the Moon is Illuminated
Jun 24
Full
Jun 29
Last Quarter
Jul 8
New
Jul 15
First Quarter
Jul 22
Full

Hourly Weather History & Observations

Time (CDT) Temp. Heat Index Dew Point Humidity Pressure Visibility Wind Dir Wind Speed Gust Speed Precip Events Conditions
12:53 AM 81.0 °F 83.3 °F 66.9 °F 62% 29.88 in 10.0 mi South 15.0 mph - N/A   Clear
1:53 AM 80.1 °F 82.3 °F 66.9 °F 64% 29.86 in 10.0 mi South 11.5 mph 23.0 mph N/A   Clear
2:53 AM 79.0 °F - 66.9 °F 66% 29.87 in 10.0 mi South 10.4 mph - N/A   Clear
3:53 AM 77.0 °F - 68.0 °F 74% 29.88 in 10.0 mi SSE 6.9 mph - N/A   Clear
4:53 AM 77.0 °F - 68.0 °F 74% 29.90 in 10.0 mi SSE 8.1 mph - N/A   Overcast
5:53 AM 75.9 °F - 68.0 °F 76% 29.88 in 10.0 mi South 9.2 mph - N/A   Mostly Cloudy
6:53 AM 75.9 °F - 68.0 °F 76% 29.90 in 10.0 mi South 8.1 mph - N/A   Clear
7:53 AM 79.0 °F - 69.1 °F 72% 29.88 in 10.0 mi South 10.4 mph - N/A   Clear
8:53 AM 82.0 °F 85.5 °F 69.1 °F 65% 29.88 in 10.0 mi South 16.1 mph 21.9 mph N/A   Clear
9:53 AM 84.0 °F 88.4 °F 70.0 °F 63% 29.89 in 10.0 mi South 15.0 mph 23.0 mph N/A   Clear
10:53 AM 87.1 °F 92.0 °F 70.0 °F 57% 29.90 in 10.0 mi South 15.0 mph 24.2 mph N/A   Partly Cloudy
11:33 AM 84.2 °F 88.4 °F 69.8 °F 62% 29.95 in 10.0 mi SW 13.8 mph 21.9 mph N/A Thunderstorm Overcast
11:53 AM 77.0 °F - 64.9 °F 66% 29.98 in 10.0 mi NNW 24.2 mph 38.0 mph N/A Thunderstorm Overcast
12:08 PM 71.6 °F - 66.2 °F 83% 30.00 in 10.0 mi NNW 11.5 mph 24.2 mph 0.00 in Rain , Thunderstorm Light Thunderstorms and Rain
12:41 PM 69.8 °F - 66.2 °F 88% 29.96 in 10.0 mi North 6.9 mph - 0.00 in   Mostly Cloudy
12:53 PM 70.0 °F - 66.0 °F 87% 29.94 in 10.0 mi ENE 8.1 mph - 0.00 in   Partly Cloudy
1:53 PM 73.0 °F - 64.9 °F 76% 29.89 in 10.0 mi ESE 11.5 mph - N/A   Clear
2:53 PM 80.1 °F 82.3 °F 66.9 °F 64% 29.81 in 10.0 mi SE 11.5 mph 18.4 mph 0.00 in   Clear
3:53 PM 82.9 °F 86.5 °F 69.1 °F 63% 29.83 in 10.0 mi SE 6.9 mph - N/A   Clear
4:53 PM 89.1 °F 92.9 °F 68.0 °F 50% 29.83 in 10.0 mi SSW 16.1 mph - N/A   Clear
5:53 PM 86.0 °F 87.3 °F 64.0 °F 48% 29.74 in 10.0 mi South 18.4 mph 27.6 mph N/A   Partly Cloudy
6:53 PM 86.0 °F 87.6 °F 64.9 °F 49% 29.77 in 10.0 mi South 15.0 mph 24.2 mph N/A   Clear
7:53 PM 84.0 °F 86.3 °F 66.0 °F 55% 29.77 in 10.0 mi South 12.7 mph - N/A   Clear
8:21 PM 82.4 °F 84.6 °F 66.2 °F 58% 29.79 in 10.0 mi South 12.7 mph - N/A   Partly Cloudy
8:53 PM 82.9 °F 85.0 °F 66.0 °F 56% 29.78 in 10.0 mi South 13.8 mph - N/A   Clear
9:53 PM 82.0 °F 84.5 °F 66.9 °F 60% 29.81 in 10.0 mi South 8.1 mph - N/A   Clear
10:53 PM 82.0 °F 84.5 °F 66.9 °F 60% 29.82 in 10.0 mi South 13.8 mph 26.5 mph 0.00 in   Clear
11:53 PM 82.0 °F 84.1 °F 66.0 °F 58% 29.82 in 10.0 mi South 18.4 mph 23.0 mph N/A   Clear